Location: Radomski Observatory
(40.2854°N, 79.5145°W)
Time: 12:28:49
(UTC-04:00)

Amateur Radio Satellites - All Passes

Search period start: 23 October 2014 11:58
Search period end: 24 October 2014 11:58
Location: Radomski Observatory, 40.2854°N, 79.5145°W

Satellite Date Start Highest point End Downlink Frequencies (MHz)
Time Altitude Azimuth
UKube-1 23 Oct 12:07:41 12:10:57 21° 294° (WNW) 12:14:13 145.840 MHz, 145.915 MHz
PCSat 23 Oct 12:12:36 12:15:02 13° 39° (NE) 12:17:27 145.825 MHz
KITSAT 1 23 Oct 12:24:15 12:31:41 42° 110° (ESE) 12:39:07 435.175 FM
Oscar 16 23 Oct 12:43:55 12:47:11 17° 62° (ENE) 12:50:26 437.025 USB, Beacon 2401.1428
FUNcube-1 23 Oct 12:44:30 12:47:36 20° 293° (WNW) 12:50:39 145.950 - 145.970 MHz USB
Uribyol 2 23 Oct 13:02:45 13:04:02 11° 58° (ENE) 13:05:18 436.500 FM
ITAMSAT 1 23 Oct 13:07:55 13:09:36 12° 58° (ENE) 13:11:16 435.822 SSB
Sapphire 23 Oct 13:31:25 13:36:35 42° 55° (NE) 13:41:43 437.095 MHz 1200 baud AX-25 AFSK
Oscar 19 23 Oct 13:35:35 13:40:32 49° 71° (ENE) 13:45:30 437.125 CW, 437.150 USB
SO-50 23 Oct 13:41:13 13:45:35 57° 118° (ESE) 13:50:07 436.795 FM
AO-27 23 Oct 13:49:52 13:54:17 29° 66° (ENE) 13:58:43 436.795 MHz FM
JAS-1B 23 Oct 13:51:31 13:57:26 58° 72° (ENE) 14:02:59 435.800 - 435.900 CW/SSB
PCSat 23 Oct 13:54:02 13:59:28 70° 60° (ENE) 14:04:51 145.825 MHz
ISS 23 Oct 13:59:22 14:02:42 84° 142° (SE) 14:06:02 145.800 FM
Oscar 10/S400 23 Oct 14:11:40 14:29:39 39° 153° (SSE) 14:51:46 145.825 - 145.975 CW/USB, Beacon 145.810 USB
KITSAT 1 23 Oct 14:19:18 14:26:59 46° 309° (NW) 14:34:43 435.175 FM
Oscar 16 23 Oct 14:20:55 14:26:01 61° 259° (W) 14:31:08 437.025 USB, Beacon 2401.1428
AO-Echo 23 Oct 14:28:53 14:33:44 80° 75° (ENE) 14:38:46 ?
AO-7 23 Oct 14:35:51 14:40:40 17° 49° (NE) 14:45:29 29.400 - 29.500 MHz
Uribyol 2 23 Oct 14:37:25 14:42:38 83° 75° (ENE) 14:47:54 436.500 FM
ITAMSAT 1 23 Oct 14:43:03 14:48:16 87° 75° (ENE) 14:53:31 435.822 SSB
Gurwin Techsat 1B 23 Oct 14:53:42 14:58:53 57° 72° (ENE) 15:04:06 435.225 FM
TMSAT-1 23 Oct 15:06:00 15:11:09 55° 72° (ENE) 15:16:20 436.925 FM
UOSAT-12 23 Oct 15:13:29 15:17:52 45° 116° (ESE) 15:22:22 437.025 FM, 437.400 FM
Sapphire 23 Oct 15:15:17 15:19:46 27° 252° (WSW) 15:24:14 437.095 MHz 1200 baud AX-25 AFSK
Oscar 19 23 Oct 15:16:29 15:20:07 19° 267° (W) 15:23:46 437.125 CW, 437.150 USB
SO-50 23 Oct 15:23:14 15:26:31 19° 317° (NW) 15:29:53 436.795 FM
AO-27 23 Oct 15:28:57 15:33:39 34° 263° (W) 15:38:25 436.795 MHz FM
ISS 23 Oct 15:37:14 15:39:45 19° 340° (NNW) 15:42:15 145.800 FM
PCSat 23 Oct 15:39:10 15:42:14 15° 256° (WSW) 15:45:17 145.825 MHz
JAS-1B 23 Oct 15:44:41 15:48:31 17° 267° (W) 15:52:13 435.800 - 435.900 CW/SSB
AO-Echo 23 Oct 16:12:25 16:13:09 10° 272° (W) 16:13:54 ?
Uosat F 23 Oct 16:12:51 16:17:22 35° 68° (ENE) 16:21:55 435.120 FM
KITSAT 1 23 Oct 16:20:36 16:24:46 15° 335° (NNW) 16:28:57 435.175 FM
Uribyol 2 23 Oct 16:21:14 16:22:43 11° 271° (W) 16:24:13 436.500 FM
AO-7 23 Oct 16:23:51 16:32:05 75° 69° (ENE) 16:40:21 29.400 - 29.500 MHz
ITAMSAT 1 23 Oct 16:27:39 16:28:24 10° 272° (W) 16:29:10 435.822 SSB
Gurwin Techsat 1B 23 Oct 16:35:46 16:39:12 17° 268° (W) 16:42:40 435.225 FM
TMSAT-1 23 Oct 16:47:50 16:51:24 18° 268° (W) 16:54:58 436.925 FM
Saudisat 1A 23 Oct 16:54:21 16:58:34 41° 52° (NE) 17:02:45 436.775 MHz
UOSAT-12 23 Oct 16:54:27 16:58:14 24° 315° (NW) 17:02:03 437.025 FM, 437.400 FM
JAS-2 23 Oct 17:12:24 17:17:40 35° 65° (ENE) 17:23:34 435.800 - 435.900 CW/SSB, 435.910 FM
ISS 23 Oct 17:16:07 17:17:27 12° 0° (N) 17:18:47 145.800 FM
OPAL 23 Oct 17:49:53 17:53:58 25° 97° (E) 17:58:00 ?
Uosat F 23 Oct 17:52:00 17:56:10 26° 265° (W) 18:00:23 435.120 FM
AO-7 23 Oct 18:19:24 18:25:33 23° 267° (W) 18:31:45 29.400 - 29.500 MHz
Hamsat 23 Oct 18:22:03 18:26:17 88° 258° (WSW) 18:30:30 145.90 MHz
Saudisat 1A 23 Oct 18:34:35 18:37:51 20° 249° (WSW) 18:41:06 436.775 MHz
ISS 23 Oct 18:52:35 18:55:09 20° 21° (NNE) 18:57:43 145.800 FM
JAS-2 23 Oct 18:57:23 19:02:40 36° 266° (W) 19:08:38 435.800 - 435.900 CW/SSB, 435.910 FM
SO-67 23 Oct 19:00:44 19:03:38 26° 71° (ENE) 19:06:33 435.3500 MHz FM
OPAL 23 Oct 19:28:23 19:32:54 36° 293° (WNW) 19:37:23 ?
STRAND 1 23 Oct 19:31:38 19:36:13 32° 97° (E) 19:40:46 ?
KITSAT 1 23 Oct 20:17:49 20:23:55 23° 37° (NE) 20:29:59 435.175 FM
AO-40 23 Oct 20:28:09 23:15:03 24° 118° (ESE) 00:31:41 Beacon 2401.320
ISS 23 Oct 20:28:50 20:32:10 77° 219° (SW) 20:35:30 145.800 FM
HO-68 23 Oct 20:31:14 20:37:45 39° 64° (ENE) 20:44:17 435.675 MHz FM
SO-67 23 Oct 20:34:28 20:36:38 16° 267° (W) 20:38:49 435.3500 MHz FM
STRAND 1 23 Oct 21:10:51 21:15:20 31° 293° (WNW) 21:19:47 ?
ZACube-1 23 Oct 21:21:45 21:22:31 10° 62° (ENE) 21:23:17 437.345 MHz
UKube-1 23 Oct 21:26:05 21:29:50 29° 69° (ENE) 21:33:37 145.840 MHz, 145.915 MHz
FUNcube-1 23 Oct 22:03:16 22:07:10 28° 69° (ENE) 22:11:03 145.950 - 145.970 MHz USB
Oscar 11 23 Oct 22:08:07 22:12:26 74° 76° (ENE) 22:16:46 145.825 FM, Beacon 2401.500 USB
KITSAT 1 23 Oct 22:12:29 22:20:36 82° 59° (ENE) 22:28:41 435.175 FM
SO-50 23 Oct 22:13:08 22:17:48 47° 53° (NE) 22:22:31 436.795 FM
RS-15 23 Oct 22:14:05 22:24:16 45° 109° (ESE) 22:34:20 29.354 - 29.394 USB, Beacon 29.352 USB
HO-68 23 Oct 22:18:45 22:25:22 40° 262° (W) 22:32:03 435.675 MHz FM
ZACube-1 23 Oct 22:53:38 22:58:14 83° 257° (WSW) 23:02:49 437.345 MHz
UKube-1 23 Oct 23:02:28 23:06:00 24° 264° (W) 23:09:33 145.840 MHz, 145.915 MHz
FUNcube-1 23 Oct 23:39:33 23:43:28 27° 264° (W) 23:47:22 145.950 - 145.970 MHz USB
UOSAT-12 23 Oct 23:43:34 23:47:56 35° 50° (NE) 23:52:13 437.025 FM, 437.400 FM
MaSat-1 23 Oct 23:54:20 23:57:57 28° 109° (ESE) 00:01:18 437.345 MHz
SO-50 23 Oct 23:54:24 23:58:04 22° 249° (WSW) 00:01:45 436.795 FM
KITSAT 1 24 Oct 00:09:32 00:15:02 21° 258° (WSW) 00:20:32 435.175 FM
RS-15 24 Oct 00:25:45 00:36:23 53° 312° (NW) 00:47:04 29.354 - 29.394 USB, Beacon 29.352 USB
UOSAT-12 24 Oct 01:23:59 01:27:56 27° 247° (WSW) 01:31:50 437.025 FM, 437.400 FM
MaSat-1 24 Oct 01:30:12 01:33:34 24° 302° (WNW) 01:36:42 437.345 MHz
JAS-1B 24 Oct 01:35:33 01:39:53 17° 93° (E) 01:44:37 435.800 - 435.900 CW/SSB
Oscar 19 24 Oct 01:48:45 01:52:10 18° 92° (E) 01:55:34 437.125 CW, 437.150 USB
Oscar 16 24 Oct 02:33:09 02:38:08 49° 100° (E) 02:43:04 437.025 USB, Beacon 2401.1428
AO-Echo 24 Oct 02:36:51 02:41:27 29° 95° (E) 02:46:00 ?
RS-15 24 Oct 02:44:15 02:52:06 22° 343° (NNW) 03:00:03 29.354 - 29.394 USB, Beacon 29.352 USB
Uribyol 2 24 Oct 02:51:11 02:55:46 30° 96° (E) 03:00:18 436.500 FM
ITAMSAT 1 24 Oct 02:56:53 03:01:34 32° 97° (E) 03:06:12 435.822 SSB
Gurwin Techsat 1B 24 Oct 03:11:05 03:15:19 24° 94° (E) 03:19:32 435.225 FM
TMSAT-1 24 Oct 03:23:04 03:27:12 23° 94° (E) 03:31:17 436.925 FM
JAS-1B 24 Oct 03:24:14 03:30:52 81° 286° (WNW) 03:38:50 435.800 - 435.900 CW/SSB
Oscar 19 24 Oct 03:26:50 03:31:48 52° 288° (WNW) 03:36:45 437.125 CW, 437.150 USB
AO-27 24 Oct 03:41:51 03:47:08 88° 104° (ESE) 03:52:21 436.795 MHz FM
Sapphire 24 Oct 04:12:45 04:17:48 42° 112° (ESE) 04:22:53 437.095 MHz 1200 baud AX-25 AFSK
Oscar 16 24 Oct 04:13:26 04:17:06 20° 296° (WNW) 04:20:46 437.025 USB, Beacon 2401.1428
AO-Echo 24 Oct 04:15:24 04:20:11 36° 291° (WNW) 04:24:59 ?
Uosat F 24 Oct 04:23:54 04:24:49 10° 89° (E) 04:25:44 435.120 FM
AO-7 24 Oct 04:27:00 04:33:29 25° 94° (E) 04:39:56 29.400 - 29.500 MHz
Uribyol 2 24 Oct 04:30:36 04:35:11 32° 293° (WNW) 04:39:45 436.500 FM
PCSat 24 Oct 04:35:00 04:40:22 73° 116° (ESE) 04:45:48 145.825 MHz
ITAMSAT 1 24 Oct 04:36:26 04:40:58 31° 293° (WNW) 04:45:28 435.822 SSB
Gurwin Techsat 1B 24 Oct 04:50:26 04:55:26 42° 290° (WNW) 05:00:23 435.225 FM
RS-15 24 Oct 05:01:59 05:10:06 22° 20° (NNE) 05:18:23 29.354 - 29.394 USB, Beacon 29.352 USB
TMSAT-1 24 Oct 05:02:16 05:07:17 44° 290° (WNW) 05:12:16 436.925 FM
OPAL 24 Oct 05:03:55 05:08:48 45° 68° (ENE) 05:13:39 ?
JAS-1B 24 Oct 05:17:29 05:20:47 14° 301° (WNW) 05:24:20 435.800 - 435.900 CW/SSB
AO-27 24 Oct 05:23:50 05:25:51 12° 301° (WNW) 05:27:53 436.795 MHz FM
Sapphire 24 Oct 05:56:41 06:01:21 29° 310° (NW) 06:06:02 437.095 MHz 1200 baud AX-25 AFSK
Uosat F 24 Oct 05:59:07 06:04:12 83° 285° (WNW) 06:09:14 435.120 FM
JAS-2 24 Oct 06:05:36 06:12:48 39° 96° (E) 06:19:58 435.800 - 435.900 CW/SSB, 435.910 FM
Hamsat 24 Oct 06:09:16 06:11:58 17° 93° (E) 06:14:40 145.90 MHz
AO-7 24 Oct 06:18:36 06:26:52 71° 292° (WNW) 06:35:08 29.400 - 29.500 MHz
PCSat 24 Oct 06:20:33 06:24:21 19° 315° (NW) 06:28:11 145.825 MHz
OPAL 24 Oct 06:43:57 06:47:51 22° 264° (W) 06:51:44 ?
STRAND 1 24 Oct 06:46:59 06:51:48 44° 70° (ENE) 06:56:40 ?
Saudisat 1A 24 Oct 07:03:15 07:04:37 11° 108° (ESE) 07:06:00 436.775 MHz
RS-15 24 Oct 07:14:45 07:25:41 56° 50° (NE) 07:37:02 29.354 - 29.394 USB, Beacon 29.352 USB
Uosat F 24 Oct 07:41:20 07:42:08 10° 302° (WNW) 07:42:56 435.120 FM
Hamsat 24 Oct 07:44:10 07:48:04 39° 288° (WNW) 07:51:58 145.90 MHz
JAS-2 24 Oct 07:50:30 07:57:47 46° 292° (WNW) 08:05:07 435.800 - 435.900 CW/SSB, 435.910 FM
SO-67 24 Oct 07:56:53 08:00:02 32° 97° (E) 08:03:10 435.3500 MHz FM
AO-7 24 Oct 08:13:37 08:18:12 16° 312° (NW) 08:22:48 29.400 - 29.500 MHz
STRAND 1 24 Oct 08:27:16 08:31:10 22° 266° (W) 08:35:05 ?
Saudisat 1A 24 Oct 08:39:12 08:43:34 71° 303° (WNW) 08:47:59 436.775 MHz
RS-15 24 Oct 09:27:29 09:37:49 45° 251° (WSW) 09:48:35 29.354 - 29.394 USB, Beacon 29.352 USB
SO-67 24 Oct 09:30:58 09:32:43 13° 293° (WNW) 09:34:28 435.3500 MHz FM
MaSat-1 24 Oct 09:40:51 09:43:15 30° 60° (ENE) 09:45:28 437.345 MHz
HO-68 24 Oct 09:46:26 09:53:11 42° 99° (E) 09:59:53 435.675 MHz FM
PANSAT 24 Oct 09:51:32 09:53:34 14° 179° (S) 09:55:36 not established
Oscar 11 24 Oct 09:57:51 10:00:05 14° 91° (E) 10:02:18 145.825 FM, Beacon 2401.500 USB
Saudisat 1A 24 Oct 10:22:42 10:23:57 11° 323° (NW) 10:25:13 436.775 MHz
ZACube-1 24 Oct 10:44:35 10:47:36 19° 93° (E) 10:50:34 437.345 MHz
UKube-1 24 Oct 10:50:07 10:54:26 57° 101° (E) 10:58:43 145.840 MHz, 145.915 MHz
FUNcube-1 24 Oct 11:28:35 11:32:48 60° 101° (E) 11:36:55 145.950 - 145.970 MHz USB
PANSAT 24 Oct 11:31:59 11:32:58 11° 192° (SSW) 11:33:57 not established
Oscar 11 24 Oct 11:32:22 11:36:32 49° 287° (WNW) 11:40:40 145.825 FM, Beacon 2401.500 USB
HO-68 24 Oct 11:34:17 11:40:46 38° 296° (WNW) 11:47:15 435.675 MHz FM
